Hourly Weather Roundup
Issued by NWS Central Illinois

Home | Current Version | Previous Version | Text Only | Print | Product List | Glossary On
Versions: 1 2 3 4 5 6 7 8 9 10 11 12 13 14 15 16 17 18 19 20 21 22 23 24 25 26 27 28 29 30 31 32 33 34 35 36 37 38 39 40 41 42 43 44 45 46 47 48 49 50
000
NZUS43 KILX 220310
HWRILX

AREA WEATHER ROUNDUP
NATIONAL WEATHER SERVICE, LINCOLN IL
1000 PM CDT SUN SEP 21 2014


CITY           SKY/WX    TMP DP  RH WIND       PRES   REMARKS
CHAMPAIGN      CLEAR     55  51  86 NW8       30.12R
DECATUR        CLEAR     59  51  75 NW10      30.14R
FLORA          NOT AVBL
GALESBURG      CLEAR     55  51  86 NW6       30.16S
JACKSONVILLE   CLEAR     57  52  81 NW6       30.18S
LACON          CLEAR     54  49  83 CALM      30.14R
LAWRENCEVILLE  CLEAR     58  51  78 N8        30.10R
LITCHFIELD     CLEAR     55  51  87 NW5       30.16R
$$


CITY           SKY/WX    TMP DP  RH WIND       PRES   REMARKS
LINCOLN        CLEAR     57  51  82 CALM      30.13R
MACOMB         CLEAR     52  50  94 W7        30.19R
MATTOON        CLEAR     52  48  86 W6        30.12R
MT CARMEL AP   CLEAR     59  52  77 NW6       30.10R
OLNEY-NOBLE AP CLEAR     55  50  82 CALM      30.12R
PARIS          MOCLDY    57  52  85 NW6       30.11R
PEORIA         CLEAR     57  51  80 NW3       30.15R
PONTIAC        PTCLDY    55  52  88 CALM      30.14R
RANTOUL        PTCLDY    58  50  75 NW7       30.13R
ROBINSON       CLEAR     60  53  78 N7        30.11R
SPRINGFIELD    CLEAR     57  51  80 NW6       30.16R
TAYLORVILLE    CLEAR     54  50  87 NW5       30.15R
$$

...REGIONAL REPORTS...


CITY           SKY/WX    TMP DP  RH WIND       PRES   REMARKS
CHICAGO O`HARE PTCLDY    57  47  69 N3        30.13R
KANKAKEE       CLEAR     54  51  90 N3        30.13R
MOLINE         CLEAR     58  47  66 N5        30.16R
MOUNT VERNON   CLEAR     59  48  67 N5        30.13R
PITTSFIELD     CLEAR     58  50  76 NW5       30.19R
QUINCY         CLEAR     55  49  80 N5        30.18R
ROCKFORD       CLEAR     53  46  77 CALM      30.17R
$$


CITY           SKY/WX    TMP DP  RH WIND       PRES   REMARKS
BURLINGTON     CLEAR     56  50  80 NW6       30.18R
CEDAR RAPIDS   CLEAR     51  48  89 NW5       30.18R
DES MOINES     CLEAR     60  49  66 N6        30.23R
KIRKSVILLE     CLEAR     52  49  89 NW3       30.22R
OTTUMWA        CLEAR     51  47  86 NW6       30.20R
ST LOUIS       CLEAR     64  51  62 N8        30.16R
$$


CITY           SKY/WX    TMP DP  RH WIND       PRES   REMARKS
TERRE HAUTE    MOCLDY    58  50  75 NW6       30.10R
EVANSVILLE     CLEAR     63  50  62 N5        30.09R
INDIANAPOLIS   PTCLDY    57  49  74 N7        30.07R
LAFAYETTE      CLOUDY    57  50  77 N7        30.10R
MADISON        CLEAR     50  44  80 N5        30.16R
MILWAUKEE      CLEAR     52  41  66 N9        30.14R
$$





USA.gov is the U.S. government's official web portal to all federal, state and local government web resources and services.